La Porte, IN

7:35 PM CDT on September 24, 2016 (GMT -0500)
La Porte Municipal

Weather History for KPPO - December, 2013

Change the Weather History Date:

Sunday, December 1, 2013

  Actual Average (KVPZ) Record (KVPZ)
Temperature  
Mean Temperature 33 °F 33 °F  
Max Temperature 41 °F 54 °F 60 °F (2012)
Min Temperature 25 °F 26 °F 12 °F (2002)
Degree Days  
Heating Degree Days 32 32  
Month to date heating degree days 32  
Since 1 July heating degree days 1290  
Cooling Degree Days 0 0  
Month to date cooling degree days 0  
Year to date cooling degree days 713  
Moisture  
Dew Point 29 °F    
Average Humidity 84    
Maximum Humidity 95    
Minimum Humidity 71    
Precipitation  
Precipitation 0.00 in 0.09 in 0.48 in (2006)
Month to date precipitation 0.09  
Year to date precipitation 35.42  
Sea Level Pressure  
Sea Level Pressure 30.04 in    
Wind  
Wind Speed 3 mph (NW)    
Max Wind Speed 8 mph    
Max Gust Speed -    
Visibility 7 miles    
Events      
T = Trace of Precipitation, MM = Missing Value Source: NWS Daily Summary

Daily Weather History Graph

Daily Weather History Graph

Search for Another Location

Airport or City:

Trip Planner

Search our weather history database for the weather conditions in past years. The results will help you decide how hot, cold, wet, or windy it might be!

Date:

Astronomy

Dec. 01, 2013 Rise Set
Actual Time 6:54 AM CST 4:17 PM CST
Civil Twilight 6:23 AM CST 4:48 PM CST
Nautical Twilight 5:48 AM CST 5:23 PM CST
Astronomical Twilight 5:15 AM CST 5:56 PM CST
Moon 5:10 AM CST (12/1) 3:27 PM CST (12/1)
Length of Visible Light 10h 25m
Length of Day
9h 23m
Waning Crescent, 2% of the Moon is Illuminated
Dec 1
Waning Crescent
Dec 2
New
Dec 9
First Quarter
Dec 17
Full
Dec 25
Last Quarter

Hourly Weather History & Observations

Time (CST) Temp. Windchill Dew Point Humidity Pressure Visibility Wind Dir Wind Speed Gust Speed Precip Events Conditions
12:15 AM 34.0 °F 29.8 °F 26.8 °F 75% 30.07 in 10.0 mi SW 4.6 mph - N/A   Mostly Cloudy
12:35 AM 33.4 °F 28.1 °F 26.4 °F 75% 30.06 in 10.0 mi SW 5.8 mph - N/A   Mostly Cloudy
12:55 AM 32.9 °F 28.5 °F 26.6 °F 78% 30.06 in 10.0 mi SW 4.6 mph - N/A   Scattered Clouds
1:15 AM 32.2 °F 27.7 °F 26.2 °F 79% 30.06 in 10.0 mi SW 4.6 mph - N/A   Scattered Clouds
1:35 AM 32.0 °F 27.5 °F 26.2 °F 79% 30.06 in 10.0 mi SW 4.6 mph - N/A   Scattered Clouds
1:55 AM 31.1 °F 26.4 °F 25.7 °F 80% 30.05 in 10.0 mi SW 4.6 mph - N/A   Mostly Cloudy
2:15 AM 32.2 °F 27.7 °F 26.6 °F 80% 30.05 in 10.0 mi WSW 4.6 mph - N/A   Scattered Clouds
2:35 AM 30.9 °F 26.2 °F 25.5 °F 80% 30.05 in 10.0 mi WSW 4.6 mph - N/A   Mostly Cloudy
2:55 AM 31.1 °F 26.4 °F 25.7 °F 80% 30.04 in 10.0 mi WSW 4.6 mph - N/A   Mostly Cloudy
3:15 AM 30.9 °F 27.5 °F 25.5 °F 80% 30.04 in 10.0 mi WSW 3.5 mph - N/A   Mostly Cloudy
3:35 AM 31.3 °F 26.6 °F 26.4 °F 82% 30.04 in 10.0 mi WSW 4.6 mph - N/A   Scattered Clouds
3:55 AM 29.5 °F 25.9 °F 25.2 °F 84% 30.04 in 10.0 mi SW 3.5 mph - N/A   Scattered Clouds
4:15 AM 29.5 °F - 25.7 °F 86% 30.04 in 10.0 mi Calm Calm - N/A   Mostly Cloudy
4:35 AM 27.3 °F 23.4 °F 24.3 °F 88% 30.05 in 10.0 mi SW 3.5 mph - N/A   Mostly Cloudy
4:55 AM 28.0 °F - 25.3 °F 90% 30.06 in 10.0 mi Calm Calm - N/A   Mostly Cloudy
5:15 AM 28.8 °F - 25.9 °F 89% 30.04 in 10.0 mi Calm Calm - N/A   Scattered Clouds
5:35 AM 28.2 °F - 25.3 °F 89% 30.04 in 10.0 mi Calm Calm - N/A   Scattered Clouds
5:55 AM 27.0 °F - 24.1 °F 89% 30.06 in 10.0 mi Calm Calm - N/A   Scattered Clouds
6:15 AM 27.1 °F - 25.0 °F 92% 30.06 in 10.0 mi Calm Calm - N/A   Scattered Clouds
6:35 AM 28.4 °F - 25.9 °F 90% 30.06 in 10.0 mi Calm Calm - N/A   Clear
6:50 AM 29.1 °F - 26.2 °F 89% 30.05 in 10.0 mi Calm Calm - N/A   Clear
7:15 AM 29.3 °F - 26.6 °F 90% 30.05 in 7.0 mi Calm Calm - N/A   Clear
7:35 AM 30.0 °F 26.5 °F 27.5 °F 90% 30.07 in 10.0 mi West 3.5 mph - N/A   Clear
7:55 AM 32.0 °F - 29.1 °F 89% 30.08 in 7.0 mi Calm Calm - N/A   Clear
8:15 AM 32.0 °F - 29.3 °F 90% 30.07 in 5.0 mi Calm Calm - N/A   Clear
8:35 AM 32.2 °F 28.9 °F 30.4 °F 93% 30.08 in 7.0 mi West 3.5 mph - N/A   Clear
8:55 AM 34.0 °F 31.0 °F 31.8 °F 92% 30.08 in 5.0 mi NW 3.5 mph - N/A   Clear
9:15 AM 35.6 °F - 32.4 °F 88% 30.09 in 5.0 mi Calm Calm - N/A   Clear
9:35 AM 36.9 °F - 33.8 °F 89% 30.08 in 5.0 mi Calm Calm - N/A   Clear
9:55 AM 38.3 °F 34.8 °F 34.9 °F 87% 30.08 in 5.0 mi NNW 4.6 mph - N/A   Clear
10:15 AM 39.4 °F 37.2 °F 35.6 °F 86% 30.08 in 5.0 mi NW 3.5 mph - N/A   Clear
10:35 AM 39.7 °F - 35.2 °F 84% 30.08 in 5.0 mi Calm Calm - N/A   Haze
10:55 AM 39.6 °F 37.4 °F 35.2 °F 85% 30.07 in 5.0 mi NW 3.5 mph - N/A   Haze
11:15 AM 41.4 °F 38.4 °F 36.0 °F 81% 30.06 in 7.0 mi NNW 4.6 mph - N/A   Scattered Clouds
11:35 AM 41.4 °F 36.8 °F 35.2 °F 79% 30.05 in 7.0 mi NNE 6.9 mph - N/A   Mostly Cloudy
11:55 AM 41.7 °F 38.8 °F 34.2 °F 75% 30.05 in 7.0 mi NNE 4.6 mph - N/A   Mostly Cloudy
12:15 PM 41.5 °F - 33.1 °F 72% 30.04 in 7.0 mi Calm Calm - N/A   Overcast
12:35 PM 41.4 °F 36.2 °F 33.1 °F 72% 30.04 in 7.0 mi NNE 8.1 mph - N/A   Overcast
12:55 PM 40.5 °F 35.1 °F 33.3 °F 75% 30.04 in 7.0 mi North 8.1 mph - N/A   Overcast
1:15 PM 40.8 °F 36.2 °F 33.3 °F 74% 30.03 in 7.0 mi North 6.9 mph - N/A   Overcast
1:35 PM 41.0 °F 36.4 °F 32.9 °F 73% 30.02 in 7.0 mi North 6.9 mph - N/A   Overcast
1:55 PM 41.0 °F 35.8 °F 32.4 °F 71% 30.01 in 7.0 mi North 8.1 mph - N/A   Overcast
2:15 PM 40.6 °F 36.0 °F 32.0 °F 71% 30.02 in 7.0 mi North 6.9 mph - N/A   Overcast
2:35 PM 40.6 °F 37.5 °F 31.8 °F 71% 30.03 in 7.0 mi NNW 4.6 mph - N/A   Overcast
2:55 PM 40.1 °F 34.7 °F 31.6 °F 72% 30.03 in 7.0 mi North 8.1 mph - N/A   Overcast
3:15 PM 40.1 °F 36.1 °F 31.5 °F 71% 30.03 in 10.0 mi North 5.8 mph - N/A   Overcast
3:35 PM 39.6 °F 35.4 °F 31.3 °F 72% 30.02 in 7.0 mi North 5.8 mph - N/A   Overcast
3:55 PM 39.2 °F 35.0 °F 31.1 °F 73% 30.02 in 7.0 mi North 5.8 mph - N/A   Overcast
4:15 PM 38.7 °F 34.3 °F 30.9 °F 74% 30.02 in 7.0 mi North 5.8 mph - N/A   Overcast
4:35 PM 37.4 °F 33.8 °F 30.9 °F 77% 30.02 in 10.0 mi North 4.6 mph - N/A   Overcast
4:55 PM 37.0 °F 33.3 °F 30.7 °F 78% 30.02 in 10.0 mi NNW 4.6 mph - N/A   Overcast
5:15 PM 36.7 °F 32.9 °F 30.2 °F 77% 30.03 in 7.0 mi NNW 4.6 mph - N/A   Overcast
5:35 PM 36.0 °F - 30.0 °F 79% 30.03 in 7.0 mi Calm Calm - N/A   Overcast
5:55 PM 36.5 °F - 30.0 °F 77% 30.03 in 10.0 mi Calm Calm - N/A   Overcast
6:15 PM 34.5 °F - 30.4 °F 85% 30.02 in 7.0 mi Calm Calm - N/A   Overcast
6:35 PM 34.3 °F 31.4 °F 30.4 °F 85% 30.03 in 7.0 mi NNW 3.5 mph - N/A   Overcast
6:55 PM 34.7 °F - 30.6 °F 85% 30.02 in 5.0 mi Calm Calm - N/A   Haze
7:15 PM 33.1 °F - 30.2 °F 89% 30.02 in 7.0 mi Calm Calm - N/A   Overcast
7:35 PM 32.5 °F - 29.7 °F 89% 30.02 in 7.0 mi Calm Calm - N/A   Overcast
7:55 PM 32.0 °F - 29.1 °F 89% 30.01 in 7.0 mi Calm Calm - N/A   Mostly Cloudy
8:15 PM 31.8 °F - 28.8 °F 88% 30.02 in 7.0 mi Calm Calm - N/A   Mostly Cloudy
8:35 PM 31.3 °F - 28.4 °F 89% 30.02 in 4.0 mi Calm Calm - N/A   Mostly Cloudy
8:55 PM 31.1 °F - 28.9 °F 92% 30.01 in 5.0 mi Calm Calm - N/A   Overcast
9:15 PM 30.2 °F - 28.2 °F 92% 30.01 in 2.5 mi Calm Calm - N/A   Scattered Clouds
9:35 PM 28.6 °F - 26.8 °F 93% 30.01 in 5.0 mi Calm Calm - N/A   Scattered Clouds
9:55 PM 29.5 °F - 28.0 °F 94% 30.00 in 4.0 mi Calm Calm - N/A   Scattered Clouds
10:15 PM 27.5 °F - 25.9 °F 94% 30.00 in 3.0 mi Calm Calm - N/A   Mist
10:35 PM 27.7 °F - 26.2 °F 94% 29.99 in 3.0 mi Calm Calm - N/A   Scattered Clouds
10:55 PM 26.4 °F - 25.0 °F 94% 29.99 in 4.0 mi Calm Calm - N/A   Clear
11:15 PM 27.0 °F - 25.7 °F 95% 29.99 in 3.0 mi Calm Calm - N/A   Mist
11:35 PM 25.9 °F - 24.4 °F 94% 29.98 in 4.0 mi Calm Calm - N/A   Scattered Clouds
11:55 PM 26.2 °F - 24.8 °F 94% 29.97 in 4.0 mi Calm Calm - N/A   Mostly Cloudy